Weather in Talovka

Russia / Kamchatka Krai     62°03′02″N   166°42′00″E
temp.,
°C
wind,
m/s
gust,
m/s
humid.,
%
clouds,
%
prec.,
mm/h
press.,
hPa
HPBL,
m
28 february, sun
sun2800:00−34nne229569 0.0 102819
03:00−35nne239482 0.0 102819
06:00−35nne239472 0.0 102819
09:00−35nne239464 0.0 102924
12:00−31nne459360 0.0 1028220
15:00−29nne469353 0.0 1026297
18:00−32n469674 0.0 102495
21:00−32nne479694 0.0 1022140
1 march, mon
mon100:00−33nne5109598 0.0 1017222
03:00−31n61292100 0.0 1011402
06:00−28n81487100 0.0 1007576
09:00−25n91879100 0.0 1003652
12:00−25nne152291100 0.8 1001684
15:00−23nne162386100 0.7 999827
18:00−24nne162382100 0.8 998808
21:00−23nne142281100 0.0 1000807
2 march, tue
tue200:00−22nne142182100 0.0 1001766
03:00−22nne122082100 0.0 1002735
06:00−22nne11198299 0.0 1004643
09:00−23n61783100 0.0 1007550
12:00−21nne7158180 0.0 1010598
15:00−20n4108250 0.0 1012613
18:00−24n348875 0.0 101537
21:00−27n22870 0.0 101919
3 march, wed
wed300:00−29nne11860 0.0 102119
03:00−30ne11849 0.0 102419
06:00−31ne118440 0.0 102619
09:00−29ne1281100 0.0 102719
12:00−26nne238360 0.0 1027149
15:00−24nne4486100 0.0 1024234
18:00−24n5789100 0.0 1020180
21:00−21nne7899100 1.8 1015170
4 march, thu
thu400:00−17nne711100100 5.2 1005312
03:00−11e82486100 0.4 995747
06:00−7ese92488100 0.8 985750
09:000se142791100 4.6 9751468
12:00+1se172592100 9.8 9681260
15:00−13sw12179188 2.5 967643
18:00−17sw12188388 2.7 972760
21:00−20sw142279100 0.0 977824